Brookings, OR

5:43 AM PDT on March 26, 2017 (GMT -0700)
Brookings State

Weather History for KBOK - January, 2013

Change the Weather History Date:

Thursday, January 3, 2013

  Actual Average Record
Temperature  
Mean Temperature 44 °F -  
Max Temperature 52 °F 54 °F 66 °F (1985)
Min Temperature 36 °F 40 °F 26 °F (1950)
Degree Days  
Heating Degree Days 21    
Moisture  
Dew Point 42 °F    
Average Humidity 85    
Maximum Humidity 100    
Minimum Humidity 50    
Precipitation  
Precipitation 0.04 in - - ()
Sea Level Pressure  
Sea Level Pressure 30.21 in    
Wind  
Wind Speed 6 mph (SSE)    
Max Wind Speed 15 mph    
Max Gust Speed -    
Visibility 8 miles    
Events Rain    
Averages and records for this station are not official NWS values.
T = Trace of Precipitation, MM = Missing Value Source: NWS Daily Summary

Daily Weather History Graph

Daily Weather History Graph

Search for Another Location

Airport or City:

Trip Planner

Search our weather history database for the weather conditions in past years. The results will help you decide how hot, cold, wet, or windy it might be!

Date:

Astronomy

Jan. 03, 2013 Rise Set
Actual Time 7:45 AM PST 4:58 PM PST
Civil Twilight 7:13 AM PST 5:29 PM PST
Nautical Twilight 6:38 AM PST 6:05 PM PST
Astronomical Twilight 6:05 AM PST 6:38 PM PST
Moon 11:47 PM PST (1/3) 10:53 AM PST (1/3)
Length of Visible Light 10h 15m
Length of Day
9h 12m
Waning Gibbous, 64% of the Moon is Illuminated
Jan 3
Waning Gibbous
Jan 4
Last Quarter
Jan 11
New
Jan 18
First Quarter
Jan 26
Full

Hourly Weather History & Observations

Time (PST) Temp. Windchill Dew Point Humidity Pressure Visibility Wind Dir Wind Speed Gust Speed Precip Events Conditions
12:56 AM 37.9 °F 35.5 °F 34.9 °F 89% 30.09 in 10.0 mi East 3.5 mph - N/A   Clear
1:56 AM 36.9 °F 34.3 °F 34.9 °F 93% 30.09 in 10.0 mi SE 3.5 mph - N/A   Clear
2:56 AM 39.9 °F 36.7 °F 32.9 °F 76% 30.09 in 10.0 mi Variable 4.6 mph - N/A   Clear
3:56 AM 38.8 °F 34.6 °F 32.9 °F 79% 30.07 in 10.0 mi Variable 5.8 mph - N/A   Scattered Clouds
4:56 AM 37.9 °F 33.5 °F 34.9 °F 89% 30.08 in 10.0 mi East 5.8 mph - N/A   Overcast
5:56 AM 43.9 °F 40.5 °F 32.0 °F 63% 30.08 in 10.0 mi Variable 5.8 mph - N/A   Overcast
6:56 AM 46.9 °F - 29.1 °F 50% 30.09 in 10.0 mi Variable 4.6 mph - N/A   Overcast
7:56 AM 43.9 °F 40.5 °F 36.9 °F 76% 30.12 in 6.0 mi Variable 5.8 mph - 0.01 in Rain Light Rain
8:56 AM 45.0 °F 40.6 °F 37.9 °F 76% 30.16 in 10.0 mi SSE 8.1 mph - 0.01 in   Overcast
9:14 AM 44.6 °F 39.2 °F 37.4 °F 76% 30.16 in 10.0 mi SSE 10.4 mph - N/A   Overcast
9:21 AM 46.4 °F 43.5 °F 37.4 °F 71% 30.16 in 10.0 mi SE 5.8 mph - N/A   Overcast
9:56 AM 45.9 °F 41.7 °F 38.8 °F 76% 30.19 in 10.0 mi SE 8.1 mph - N/A   Overcast
10:20 AM 46.4 °F 43.5 °F 37.4 °F 71% 30.19 in 10.0 mi SE 5.8 mph - N/A   Overcast
10:56 AM 47.8 °F - 38.8 °F 71% 30.20 in 10.0 mi SSE 11.5 mph - N/A   Overcast
11:25 AM 48.2 °F - 39.2 °F 71% 30.19 in 10.0 mi SSE 12.7 mph - N/A   Overcast
11:56 AM 48.9 °F - 41.9 °F 77% 30.20 in 10.0 mi SSE 11.5 mph - N/A   Overcast
12:56 PM 50.9 °F - 45.0 °F 80% 30.18 in 10.0 mi SSE 12.7 mph - N/A   Mostly Cloudy
1:56 PM 52.0 °F - 45.0 °F 77% 30.19 in 10.0 mi South 15.0 mph - N/A   Overcast
2:04 PM 51.8 °F - 44.6 °F 76% 30.18 in 10.0 mi South 15.0 mph - N/A   Overcast
2:14 PM 51.8 °F - 44.6 °F 76% 30.19 in 10.0 mi SSE 12.7 mph - N/A   Overcast
2:25 PM 51.8 °F - 44.6 °F 76% 30.19 in 10.0 mi South 10.4 mph - N/A   Overcast
2:56 PM 52.0 °F - 43.9 °F 74% 30.22 in 10.0 mi South 15.0 mph - N/A   Overcast
3:56 PM 50.9 °F - 45.0 °F 80% 30.24 in 10.0 mi South 10.4 mph - N/A   Overcast
4:56 PM 50.0 °F - 46.9 °F 89% 30.25 in 10.0 mi SSE 8.1 mph - N/A   Overcast
5:56 PM 50.0 °F - 47.8 °F 92% 30.27 in 9.0 mi SSE 6.9 mph - N/A   Overcast
6:56 PM 48.9 °F - 48.9 °F 100% 30.28 in 3.0 mi SSE 6.9 mph - N/A   Overcast
7:36 PM 48.2 °F - 48.2 °F 100% 30.28 in 6.0 mi Variable 5.8 mph - N/A   Overcast
7:56 PM 48.9 °F - 48.9 °F 100% 30.30 in 6.0 mi SSE 4.6 mph - N/A   Overcast
8:24 PM 48.2 °F - 48.2 °F 100% 30.29 in 5.0 mi Variable 4.6 mph - N/A   Overcast
8:47 PM 48.2 °F - 48.2 °F 100% 30.29 in 5.0 mi Calm Calm - 0.00 in   Overcast
8:56 PM 47.8 °F - 47.8 °F 100% 30.30 in 5.0 mi SE 3.5 mph - 0.00 in   Overcast
9:04 PM 48.2 °F - 48.2 °F 100% 30.29 in 2.5 mi Variable 3.5 mph - 0.00 in Rain Light Rain
9:13 PM 48.2 °F - 48.2 °F 100% 30.30 in 4.0 mi SE 5.8 mph - 0.00 in   Overcast
9:56 PM 47.8 °F - 47.8 °F 100% 30.31 in 2.5 mi ESE 3.5 mph - 0.01 in Rain Light Rain
10:41 PM 46.4 °F - 46.4 °F 100% 30.31 in 1.8 mi Calm Calm - 0.00 in Rain Light Rain
10:49 PM 46.4 °F 45.2 °F 46.4 °F 100% 30.31 in 2.5 mi ESE 3.5 mph - 0.01 in Rain Light Rain
10:56 PM 46.9 °F - 46.9 °F 100% 30.32 in 2.5 mi Calm Calm - 0.01 in Rain Light Rain
11:03 PM 46.4 °F - 46.4 °F 100% 30.31 in 3.0 mi Calm Calm - 0.00 in   Overcast
11:56 PM 46.9 °F - 46.9 °F 100% 30.32 in 5.0 mi Calm Calm - 0.00 in   Overcast